Regional Weather Roundup
Issued by NWS Cleveland, OH

Home | Current Version | Previous Version | Text Only | Print | Product List | Glossary Off
Versions: 1 2 3 4 5 6 7 8 9 10 11 12 13 14 15 16 17 18 19 20 21 22 23 24 25 26 27 28 29 30 31 32 33 34 35 36 37 38 39 40 41 42 43 44 45 46 47 48 49 50

000
ASUS41 KCLE 060912
RWRCLE
OHIO REGIONAL WEATHER ROUNDUP
NATIONAL WEATHER SERVICE WILMINGTON, OH
400 AM EST TUE DEC 06 2016

NOTE: "FAIR" INDICATES FEW OR NO CLOUDS BELOW 12,000 FEET WITH NO
SIGNIFICANT WEATHER AND/OR OBSTRUCTIONS TO VISIBILITY.

OHZ001>008-015>018-024>027-034-035-043-044-061000-
   NORTHWEST OHIO

CITY           SKY/WX    TMP DP  RH WIND       PRES   REMARKS
DEFIANCE       FAIR      30  26  85 E7        29.92F WCI  23
FINDLAY        FAIR      31  26  82 E12       29.90F WCI  22
TOLEDO EXPRESS FAIR      32  30  92 E13       29.94F WCI  22
TOLEDO EXEC    FAIR      33  30  88 E8        29.96F WCI  26
LIMA           FAIR      31  28  89 E12       29.88F WCI  22
$$

OHZ009>014-019>023-028>033-038-089-061000-
   NORTHEAST OHIO

CITY           SKY/WX    TMP DP  RH WIND       PRES   REMARKS
CLE-HOPKINS    MOCLDY    30  24  78 NE5       30.00F WCI  25
CLE-LAKEFRONT  FAIR      32  27  81 NE3       29.98F
CUY CO. ARPT   NOT AVBL
LORAIN-ELYRIA  FAIR      27  23  85 E6        29.97F WCI  20
ASHTABULA      FAIR      27  24  89 E8        30.02F WCI  19
AKRON-CANTON   FAIR      33  26  75 E9        29.95F WCI  25
WOOSTER        FAIR      31  27  85 E14       29.93F WCI  21
MANSFIELD      FAIR      32  28  85 E10       29.90F WCI  24
YOUNGSTOWN     MOCLDY    32  27  81 E15       29.97F WCI  22
$$

OHZ042-051>053-060>062-070>072-077>081-061000-
  SOUTHWEST OHIO

CITY           SKY/WX    TMP DP  RH WIND       PRES   REMARKS
CINC-COVINGTON LGT RAIN  39  34  82 E9        29.79F
CINC-LUNKEN    LGT RAIN  40  36  86 NE6       29.82F
HAMILTON       CLOUDY    38  32  79 E6        29.83F
DAYTON         CLOUDY    36  31  82 E10       29.82F
WRIGHT-PAT AFB MOCLDY    37  32  84 E9        29.83F
DAYTON GENERAL MOCLDY    37  30  75 E9        29.80F
WILMINGTON     MOCLDY    35  32  88 E10       29.81F WCI  27
$$

OHZ036-037-039>041-045>050-054>059-063>069-073>076-082>088-061000-
  CENTRAL AND SOUTHEAST OHIO

CITY           SKY/WX    TMP DP  RH WIND       PRES   REMARKS
COLUMBUS       MOCLDY    36  31  82 SE6       29.89R
OSU AIRPORT    FAIR      34  31  88 E6        29.87F WCI  29
BOLTON FIELD   FAIR      36  31  83 E8        29.87F
RICKENBACK AFB FAIR      35  31  85 E10       29.87R WCI  27
NEWARK         FAIR      34  28  79 NE8       29.90R WCI  27
MARION         FAIR      33  29  85 E7        29.89F WCI  27
LANCASTER      FAIR      36  31  82 E8        29.88S
ZANESVILLE     FAIR      36  28  73 E7        29.89F
NEW PHILLY     FAIR      34  28  79 VRB3      29.94F
$$




USA.gov is the U.S. government's official web portal to all federal, state and local government web resources and services.